Simultaneous Nadir Overpasses (SNOs) Predictions

Prediction of SNOs between AQUA and METOP-B Satellite Orbit:

Table of predicted SNOs for the next 14.0 days since TLE Epoch: 3/30/2017
Index Date (AQUA) Time (AQUA) Lat,Lon (AQUA) SZA (AQUA ) Date (METOP-B) Time (METOP-B) Lat,Lon (METOP-B) SZA (METOP-B ) Distance(km) Time Diff (sec)
1 04/01/2017 02:07:53 -73.75, -37.51 110.80 04/01/2017 02:07:31 -73.74, -37.59 110.80 3.02 22
2 04/01/2017 02:57:21 73.81, 130.01 69.26 04/01/2017 02:58:09 73.83, 129.95 69.27 2.51 48
3 04/03/2017 20:52:29 73.29,-137.70 67.64 04/03/2017 20:51:21 73.25,-139.64 67.68 62.13 68
4 04/03/2017 21:42:05 -73.80, 28.84 111.83 04/03/2017 21:41:52 -73.79, 28.94 111.84 3.15 13
5 04/03/2017 22:31:32 73.81,-163.54 68.17 04/03/2017 22:32:31 73.82,-163.65 68.18 3.87 59
6 04/06/2017 16:26:47 73.67, -72.06 66.97 04/06/2017 16:25:35 73.64, -72.34 66.96 9.28 72
7 04/06/2017 17:16:16 -73.81, 95.27 112.89 04/06/2017 17:16:14 -73.79, 95.34 112.91 3.20 2
8 04/06/2017 18:05:44 73.88, -97.24 67.17 04/06/2017 18:06:52 73.87, -97.14 67.15 3.06 68
9 04/09/2017 12:00:58 73.75, -5.78 66.00 04/09/2017 11:59:54 73.73, -5.72 65.99 2.74 64
10 04/09/2017 12:50:25 -73.79, 161.77 113.98 04/09/2017 12:50:35 -73.79, 161.74 113.97 0.81 10
11 04/09/2017 13:39:58 74.12, -31.32 66.36 04/09/2017 13:41:08 74.11, -30.15 66.31 35.69 70
12 04/12/2017 07:35:08 73.75, 60.68 64.95 04/12/2017 07:34:16 73.72, 60.67 64.94 2.50 52
13 04/12/2017 08:24:35 -73.78,-131.76 115.02 04/12/2017 08:24:57 -73.79,-131.86 115.02 3.09 22




NCC Satellite Simultaneous Nadir Overpasses (SNOs) Prediction Service
